Back to catalog

PSLV DEB

AliveSSO
NORAD 27152·DEBRIS·🇮🇳 India

Launched Oct 22, 2001 from Satish Dhawan Space Centre

Loading…

Next Passes (next 24 hours)

TLE

FreshSource: Space-Track

Epoch: Sep 14, 2026, 11:59 UTC

1 27152U 01049CY  26257.49936010  .00006399  00000-0  38286-3 0  9992
2 27152  97.9854 352.9192 0019509  59.2926 301.0222 15.11262216334466

Track PSLV DEB in real time with AllMySat

Download on the App Store